Location: Arrington
(35.8681°N, 86.7092°W)
Time: 14:59:08
(UTC+00:00)

GPS 2-04 Rocket1 - Pass Details

Date: 23 November 2019
Orbit: 419 x 552 km, 35.6° (Epoch: 07 December)

Event Time Altitude Azimuth Distance (km) Brightness Sun altitude
Rises 00:35:33 0° 277° (W) 2,411 7.4 -24.0°
Reaches altitude 10° 00:37:44 10° 274° (W) 1,525 6.1 -24.5°
Enters shadow 00:40:01 36° 257° (WSW) 687 3.8 -24.9°
